Wind_Speed
32 33 34 37 40 39 40 41 49 46 45 47 44 39 33 28 29 33 36 33 36 41 42 38 41 42 42 41 42 43 46 47 48 46 47 50 53 53
36 38 39 41 42 41 43 47 49 50 45 43 36 32 27 28 31 34 34 33 38 41 38 40 40 41 39 43 44 48 49 46 45 47 51 53 55 54
40 41 42 45 43 45 49 45 44 45 41 36 30 31 31 30 31 31 33 36 39 39 38 38 39 39 41 43 47 47 45 43 45 48 51 54 56 56
44 45 46 50 51 45 46 37 50 46 47 34 29 31 29 28 30 32 35 37 35 34 37 37 38 40 41 45 45 41 39 45 49 52 53 54 55 55
48 47 49 48 47 45 43 39 50 48 51 38 31 29 30 31 31 32 32 33 31 32 34 37 40 42 43 45 40 38 43 45 51 55 56 56 57 56
54 55 53 52 49 49 44 44 51 51 47 38 30 30 33 32 33 32 31 30 29 32 36 38 42 41 42 41 37 40 44 48 52 56 58 58 59 57
52 53 49 50 53 56 51 51 49 50 42 33 31 32 34 33 32 31 28 28 31 34 37 39 41 41 39 36 36 41 46 50 53 56 59 60 62 61
59 55 51 50 56 53 50 46 47 49 33 35 33 31 32 32 31 28 26 28 32 35 37 40 40 40 37 35 40 44 50 51 55 58 60 62 63 63
62 61 58 52 56 53 53 54 50 50 38 31 32 32 31 32 30 29 28 31 33 35 37 40 39 39 37 40 41 49 52 54 58 60 61 63 64 64
60 61 60 53 51 59 55 51 45 33 28 32 33 31 33 31 29 30 31 33 34 34 35 37 39 40 41 43 47 51 54 57 58 61 63 64 65 65
54 58 55 50 51 44 44 49 40 33 29 33 33 34 33 31 31 31 33 35 35 34 35 36 40 42 44 46 49 53 56 59 59 62 64 65 65 65
52 51 58 42 40 41 42 38 30 28 35 35 33 35 33 31 32 33 36 37 36 36 38 38 42 44 45 49 52 55 58 59 59 63 64 65 66 66
37 40 36 40 37 32 28 27 30 34 35 34 34 33 33 32 35 36 37 38 39 40 40 43 46 47 48 49 53 57 59 61 60 63 64 66 67 67
27 26 27 40 39 36 30 30 34 33 35 34 34 34 34 36 36 37 38 40 41 41 42 44 46 47 49 50 53 57 59 60 60 62 65 66 67 65
30 26 31 37 36 36 26 30 32 34 34 34 34 34 36 37 36 39 39 40 42 43 44 45 48 49 52 54 54 56 57 57 61 59 63 67 66 64
33 28 30 37 35 31 26 30 34 34 35 34 34 36 36 37 39 40 41 41 43 46 47 48 51 53 54 56 55 55 56 55 54 55 57 64 66 66
39 36 30 27 30 32 28 33 38 38 36 36 36 37 39 40 40 41 42 43 45 48 50 52 55 55 56 57 56 55 51 50 52 54 55 58 66 65
42 40 41 34 42 41 39 39 39 39 39 39 39 39 40 41 42 43 45 47 48 50 52 54 55 56 58 55 55 50 45 49 52 53 57 58 64 65
45 47 45 48 53 45 40 41 42 41 40 39 38 38 40 42 45 47 49 51 52 53 53 55 57 54 53 49 47 51 50 55 55 57 59 63 66 66
51 52 51 50 50 49 47 47 46 44 41 40 38 39 41 45 48 52 55 57 57 57 56 56 56 54 52 50 47 51 57 60 61 61 61 65 67 66
57 57 56 54 52 51 50 48 48 47 43 42 42 43 43 45 49 53 57 60 61 61 59 59 60 60 60 59 56 55 59 63 65 65 64 64 65 63
62 61 60 59 57 55 54 53 53 52 50 46 44 45 48 52 56 59 58 60 61 61 59 58 60 61 61 58 55 57 61 66 67 68 69 68 64 59
67 66 65 65 62 60 59 57 58 58 57 54 53 50 50 54 56 59 60 61 62 61 60 59 59 60 58 57 57 60 66 70 72 71 68 65 59 54
Wind_Direction
249 253 258 263 266 275 280 285 292 292 293 296 297 297 294 292 293 300 301 305 305 305 306 311 314 320 323 328 327 331 332 333 331 332 331 330 327 326
251 255 258 263 269 274 282 286 288 290 291 293 295 289 289 292 291 295 297 302 303 305 308 312 317 319 323 326 327 332 333 331 333 337 338 334 330 326
255 259 261 265 270 274 279 283 286 287 289 292 282 283 284 285 288 291 297 301 304 307 308 311 315 320 324 325 329 330 331 335 339 340 338 336 335 328
259 262 264 267 271 276 279 268 282 273 274 278 274 279 275 282 287 291 295 299 303 307 305 312 317 320 322 324 327 330 333 339 339 340 338 334 332 330
259 262 267 272 271 271 271 284 283 279 269 269 267 268 272 278 286 292 295 297 302 303 310 314 317 319 320 322 327 331 335 338 337 337 337 335 332 327
262 266 267 272 270 273 271 277 275 274 267 261 260 265 272 276 282 289 291 299 306 308 310 313 315 316 319 322 324 329 332 335 334 335 334 333 332 328
268 265 269 269 270 268 273 271 256 267 258 254 257 262 270 279 284 288 290 297 303 305 309 311 313 314 316 319 323 327 330 332 332 332 332 332 330 329
269 264 269 269 269 278 268 263 267 261 242 252 258 266 274 280 282 283 289 296 302 304 308 310 311 312 313 318 322 325 327 328 330 331 330 331 329 329
267 267 264 272 276 271 255 259 253 246 232 242 259 265 271 273 273 279 287 294 299 304 309 312 310 309 311 317 320 321 324 326 327 328 328 329 329 328
258 262 260 267 277 268 259 261 236 229 240 252 259 265 264 265 272 280 288 291 297 302 308 310 310 309 310 314 318 320 322 323 325 326 327 328 328 328
251 258 258 263 266 257 247 239 229 231 239 254 259 257 258 264 271 278 284 287 295 300 305 308 309 311 313 316 318 319 320 322 325 324 325 325 326 327
254 263 262 249 240 232 236 236 229 240 250 254 256 254 260 266 273 278 282 289 295 299 301 305 308 309 313 315 318 319 320 322 324 323 323 324 325 326
249 241 234 232 228 234 233 241 242 247 253 258 258 258 263 268 273 280 285 290 293 297 299 303 305 308 312 315 316 318 319 321 323 322 322 323 324 325
223 228 243 239 247 236 247 239 245 249 256 258 257 261 266 272 279 286 290 293 297 299 301 303 305 309 313 315 316 317 318 320 321 321 321 321 322 324
231 254 258 235 243 236 238 247 252 253 252 256 261 264 269 275 281 285 289 293 296 299 301 304 306 311 313 314 315 315 316 319 317 321 321 320 321 321
254 258 251 227 231 246 237 253 257 258 262 265 267 270 274 279 283 287 289 293 296 298 301 303 306 310 312 313 313 313 315 316 317 320 321 320 319 319
239 232 225 246 247 259 247 249 257 260 263 266 269 272 275 278 284 287 289 292 295 298 301 304 306 309 311 311 312 311 315 316 322 323 322 323 316 316
242 240 242 246 237 248 254 256 256 260 264 267 271 274 278 281 284 287 290 293 295 296 299 302 305 307 309 311 309 311 311 318 327 322 319 319 315 314
236 237 239 237 252 259 258 257 259 260 262 266 270 276 283 287 291 292 293 294 294 295 295 297 299 301 306 310 313 311 308 318 320 316 316 317 314 315
241 241 242 244 248 250 251 251 254 257 260 265 272 282 289 294 297 297 296 293 292 293 293 294 296 299 300 303 306 311 312 314 315 314 312 312 313 313
245 245 246 247 248 251 252 255 257 257 261 268 274 283 290 297 302 303 300 295 292 291 291 291 291 296 301 302 306 310 312 312 311 310 309 310 310 311
243 245 247 248 249 251 254 255 257 259 260 266 276 284 292 297 301 301 298 295 293 291 290 292 294 295 299 302 306 309 309 309 308 308 308 309 310 311
244 245 246 248 248 251 252 253 256 258 261 267 276 285 292 295 298 299 297 294 291 289 289 291 294 297 300 303 307 308 309 308 307 308 307 308 309 311
Height
5812 5814 5816 5817 5817 5816 5816 5814 5811 5810 5807 5804 5802 5799 5798 5796 5793 5791 5787 5783 5779 5775 5771 5767 5764 5759 5754 5748 5742 5734 5726 5720 5714 5706 5699 5689 5681 5672
5803 5805 5807 5807 5808 5808 5807 5805 5801 5799 5800 5796 5793 5792 5791 5790 5787 5783 5780 5776 5773 5768 5765 5762 5757 5754 5747 5742 5736 5729 5722 5715 5707 5699 5692 5683 5673 5664
5794 5795 5796 5797 5797 5797 5795 5795 5793 5788 5791 5788 5786 5785 5783 5782 5779 5775 5772 5769 5766 5762 5760 5755 5752 5746 5741 5735 5728 5721 5715 5709 5701 5692 5684 5676 5666 5656
5783 5784 5786 5786 5786 5786 5783 5779 5784 5781 5782 5779 5778 5777 5775 5775 5771 5769 5765 5762 5757 5757 5752 5750 5745 5739 5734 5727 5722 5715 5708 5702 5694 5686 5677 5669 5659 5648
5771 5773 5774 5774 5775 5773 5772 5773 5774 5773 5773 5771 5769 5769 5769 5767 5764 5760 5757 5755 5752 5748 5746 5743 5738 5733 5727 5722 5715 5710 5703 5694 5687 5678 5670 5660 5650 5640
5759 5761 5762 5763 5762 5762 5763 5762 5764 5761 5761 5763 5761 5762 5761 5758 5756 5753 5749 5748 5745 5741 5738 5736 5731 5725 5719 5714 5709 5703 5694 5687 5679 5671 5662 5652 5641 5631
5747 5748 5751 5751 5751 5751 5751 5750 5751 5751 5751 5753 5753 5752 5753 5750 5746 5744 5741 5740 5738 5734 5731 5728 5721 5716 5712 5707 5701 5695 5686 5678 5672 5663 5654 5644 5632 5621
5734 5736 5739 5738 5738 5739 5738 5739 5740 5740 5740 5745 5745 5744 5744 5741 5739 5736 5734 5733 5732 5728 5723 5719 5715 5709 5705 5699 5694 5686 5679 5670 5662 5654 5645 5635 5623 5612
5722 5723 5726 5727 5727 5726 5727 5728 5728 5728 5730 5733 5735 5736 5734 5731 5730 5729 5728 5727 5724 5720 5717 5710 5707 5701 5696 5691 5685 5679 5670 5661 5653 5644 5635 5626 5614 5602
5708 5708 5712 5714 5714 5714 5715 5716 5716 5718 5721 5725 5725 5725 5724 5722 5721 5722 5721 5719 5716 5712 5708 5703 5697 5693 5687 5682 5675 5669 5660 5651 5643 5635 5626 5616 5605 5594
5695 5698 5699 5701 5699 5700 5702 5705 5707 5709 5713 5716 5717 5716 5714 5713 5714 5713 5712 5710 5708 5703 5700 5696 5689 5685 5679 5671 5665 5659 5650 5642 5633 5625 5615 5606 5595 5585
5683 5685 5687 5687 5689 5691 5695 5698 5699 5703 5705 5706 5707 5705 5705 5705 5706 5705 5704 5702 5699 5696 5692 5688 5682 5678 5672 5662 5655 5648 5639 5632 5623 5614 5604 5595 5584 5574
5671 5673 5675 5676 5680 5682 5684 5689 5692 5696 5697 5697 5697 5696 5697 5696 5697 5697 5695 5692 5689 5686 5684 5679 5674 5668 5662 5656 5646 5637 5628 5622 5613 5603 5593 5583 5572 5561
5662 5666 5668 5670 5671 5673 5676 5679 5684 5685 5687 5687 5688 5688 5688 5689 5689 5688 5686 5683 5680 5677 5674 5669 5666 5659 5652 5647 5639 5628 5617 5609 5602 5593 5581 5572 5562 5552
5656 5656 5658 5660 5662 5663 5667 5672 5674 5675 5676 5677 5678 5678 5680 5680 5680 5679 5676 5673 5670 5666 5663 5660 5655 5649 5642 5635 5629 5619 5613 5604 5590 5585 5572 5560 5553 5544
5646 5648 5650 5651 5652 5653 5657 5662 5664 5666 5667 5668 5670 5670 5671 5670 5669 5668 5665 5663 5660 5655 5652 5648 5643 5638 5631 5623 5617 5610 5601 5594 5586 5577 5569 5553 5543 5532
5637 5639 5641 5643 5642 5645 5650 5652 5654 5656 5657 5659 5660 5661 5660 5659 5658 5657 5654 5652 5650 5644 5639 5635 5632 5627 5620 5612 5606 5597 5591 5583 5574 5568 5560 5550 5531 5522
5626 5630 5633 5634 5633 5638 5640 5642 5645 5647 5648 5649 5650 5650 5649 5649 5647 5645 5643 5641 5637 5633 5627 5622 5618 5613 5607 5602 5591 5588 5580 5574 5567 5558 5548 5541 5529 5512
5615 5619 5621 5623 5623 5626 5629 5631 5634 5636 5637 5637 5638 5637 5636 5635 5634 5632 5630 5628 5626 5621 5616 5611 5606 5601 5596 5591 5585 5573 5569 5563 5557 5548 5539 5529 5519 5507
5603 5605 5607 5609 5612 5614 5617 5620 5622 5623 5623 5623 5623 5622 5622 5622 5621 5619 5616 5614 5611 5608 5604 5598 5593 5588 5583 5579 5574 5566 5557 5551 5545 5538 5530 5520 5509 5496
5588 5590 5592 5595 5598 5600 5602 5605 5606 5606 5607 5608 5608 5608 5608 5608 5607 5605 5602 5599 5596 5593 5590 5586 5580 5576 5571 5567 5562 5555 5547 5538 5531 5525 5517 5511 5502 5492
5572 5575 5578 5580 5582 5585 5586 5589 5590 5591 5592 5593 5593 5593 5593 5593 5592 5590 5587 5585 5582 5579 5576 5572 5567 5562 5558 5553 5549 5542 5535 5526 5518 5509 5501 5496 5489 5483
5554 5557 5560 5563 5565 5568 5571 5572 5574 5576 5577 5578 5578 5578 5577 5577 5576 5574 5572 5570 5568 5565 5561 5559 5554 5550 5545 5541 5535 5529 5522 5513 5505 5496 5488 5482 5476 5469